When you browse on this site, cookies collect data to enhance your experience and personalize the content and advertising you see.
Visit our Privacy Policy to learn more. By continuing to use the site, you agree to this use of cookies and data.
  • In Österreich
  • Länderverzeichnis
  • Für 7 Tage
  • Wassertemperatur
  • Wetterkarte
  • News
  • Widgets
  • user-avatar
    Anmelden

    Stündliche Wetter Lezhe

    Heute, 29 Mai, Freitag

    Zeit Temperatur Niederschläge Wind Luftdruck Luftfeuchtigkeit
    00:00 +12°C° 0.1 mm 2 m/S 739 mmHg 80%
    01:00 +12°C° 0 mm 2 m/S 738 mmHg 79%
    02:00 +12°C° 0 mm 2 m/S 738 mmHg 80%
    03:00 +10°C° 0 mm 2 m/S 738 mmHg 80%
    04:00 +10°C° 0 mm 2 m/S 738 mmHg 80%
    05:00 +13°C° 0 mm 2 m/S 738 mmHg 75%
    06:00 +14°C° 0 mm 2 m/S 738 mmHg 70%
    07:00 +17°C° 0 mm 2 m/S 738 mmHg 66%
    08:00 +18°C° 0 mm 2 m/S 738 mmHg 59%
    09:00 +19°C° 0 mm 2 m/S 738 mmHg 52%
    10:00 +21°C° 0 mm 2 m/S 738 mmHg 45%
    11:00 +21°C° 0 mm 2 m/S 738 mmHg 45%
    12:00 +22°C° 0 mm 3 m/S 738 mmHg 44%
    13:00 +22°C° 0 mm 3 m/S 738 mmHg 42%
    14:00 +21°C° 0.1 mm 3 m/S 737 mmHg 45%
    15:00 +21°C° 0.1 mm 3 m/S 737 mmHg 49%
    16:00 +20°C° 0.1 mm 3 m/S 737 mmHg 52%
    17:00 +19°C° 0.2 mm 2 m/S 737 mmHg 59%
    18:00 +17°C° 0.2 mm 2 m/S 737 mmHg 67%
    19:00 +15°C° 0.2 mm 1 m/S 737 mmHg 74%
    20:00 +15°C° 0.3 mm 1 m/S 738 mmHg 76%
    21:00 +14°C° 0.3 mm 1 m/S 738 mmHg 78%
    22:00 +14°C° 0.3 mm 1 m/S 738 mmHg 80%
    23:00 +13°C° 0 mm 1 m/S 738 mmHg 80%

    Morgen, 30 Mai, Samstag

    Zeit Temperatur Niederschläge Wind Luftdruck Luftfeuchtigkeit
    00:00 +13°C° 0 mm 1 m/S 738 mmHg 81%
    01:00 +12°C° 0 mm 2 m/S 738 mmHg 81%
    02:00 +12°C° 0 mm 2 m/S 738 mmHg 81%
    03:00 +12°C° 0 mm 1 m/S 738 mmHg 80%
    04:00 +12°C° 0 mm 1 m/S 738 mmHg 80%
    05:00 +13°C° 0 mm 1 m/S 737 mmHg 76%
    06:00 +15°C° 0 mm 1 m/S 737 mmHg 72%
    07:00 +18°C° 0 mm 1 m/S 737 mmHg 67%
    08:00 +18°C° 0.2 mm 2 m/S 737 mmHg 66%
    09:00 +18°C° 0.2 mm 2 m/S 737 mmHg 64%
    10:00 +19°C° 0.2 mm 3 m/S 737 mmHg 63%
    11:00 +19°C° 0.7 mm 3 m/S 737 mmHg 64%
    12:00 +19°C° 0.7 mm 3 m/S 737 mmHg 65%
    13:00 +19°C° 0.7 mm 3 m/S 736 mmHg 66%
    14:00 +19°C° 0.2 mm 3 m/S 736 mmHg 63%
    15:00 +19°C° 0.2 mm 3 m/S 736 mmHg 60%
    16:00 +19°C° 0.2 mm 2 m/S 736 mmHg 58%
    17:00 +18°C° 0 mm 2 m/S 736 mmHg 64%
    18:00 +16°C° 0 mm 1 m/S 736 mmHg 70%
    19:00 +13°C° 0 mm 0 m/S 736 mmHg 77%
    20:00 +14°C° 0 mm 1 m/S 737 mmHg 76%
    21:00 +14°C° 0 mm 1 m/S 737 mmHg 75%
    22:00 +14°C° 0 mm 1 m/S 737 mmHg 74%
    23:00 +14°C° 0 mm 1 m/S 737 mmHg 74%

    übermorgen, 31 Mai, Sonntag

    Zeit Temperatur Niederschläge Wind Luftdruck Luftfeuchtigkeit
    00:00 +14°C° 0 mm 1 m/S 737 mmHg 73%
    01:00 +14°C° 0 mm 1 m/S 737 mmHg 73%
    02:00 +14°C° 0 mm 1 m/S 737 mmHg 73%
    03:00 +14°C° 0 mm 1 m/S 736 mmHg 73%
    04:00 +14°C° 0 mm 1 m/S 736 mmHg 73%
    05:00 +14°C° 0.1 mm 1 m/S 736 mmHg 72%
    06:00 +15°C° 0.1 mm 1 m/S 736 mmHg 71%
    07:00 +16°C° 0.1 mm 1 m/S 736 mmHg 69%
    08:00 +18°C° 0.1 mm 1 m/S 736 mmHg 69%
    09:00 +18°C° 0.1 mm 1 m/S 736 mmHg 70%
    10:00 +18°C° 0.1 mm 1 m/S 737 mmHg 70%
    11:00 +19°C° 0.6 mm 1 m/S 736 mmHg 70%
    12:00 +18°C° 0.6 mm 2 m/S 736 mmHg 71%
    13:00 +19°C° 0.6 mm 2 m/S 735 mmHg 72%
    14:00 +19°C° 0.5 mm 2 m/S 735 mmHg 72%
    15:00 +18°C° 0.5 mm 2 m/S 735 mmHg 71%
    16:00 +18°C° 0.5 mm 2 m/S 735 mmHg 71%
    17:00 +17°C° 0.2 mm 2 m/S 735 mmHg 76%
    18:00 +16°C° 0.2 mm 2 m/S 735 mmHg 81%
    19:00 +14°C° 0.2 mm 1 m/S 735 mmHg 86%
    20:00 +14°C° 0.2 mm 1 m/S 736 mmHg 88%
    21:00 +14°C° 0.2 mm 1 m/S 736 mmHg 89%
    22:00 +14°C° 0.2 mm 1 m/S 736 mmHg 90%
    23:00 +14°C° 0.9 mm 1 m/S 736 mmHg 90%

    1 Juni, Montag

    Zeit Temperatur Niederschläge Wind Luftdruck Luftfeuchtigkeit
    00:00 +13°C° 0.9 mm 1 m/S 736 mmHg 91%
    01:00 +13°C° 0.9 mm 1 m/S 736 mmHg 91%
    02:00 +13°C° 0.5 mm 1 m/S 735 mmHg 90%
    03:00 +12°C° 0.5 mm 1 m/S 735 mmHg 90%
    04:00 +12°C° 0.5 mm 1 m/S 735 mmHg 89%
    05:00 +13°C° 0.1 mm 1 m/S 735 mmHg 85%
    06:00 +15°C° 0.1 mm 1 m/S 735 mmHg 81%
    07:00 +16°C° 0.1 mm 2 m/S 735 mmHg 77%
    08:00 +18°C° 0 mm 1 m/S 735 mmHg 69%
    09:00 +20°C° 0 mm 1 m/S 735 mmHg 61%
    10:00 +22°C° 0 mm 1 m/S 735 mmHg 54%
    11:00 +21°C° 0.2 mm 2 m/S 735 mmHg 54%
    12:00 +21°C° 0.2 mm 2 m/S 735 mmHg 55%
    13:00 +21°C° 0.2 mm 3 m/S 735 mmHg 56%
    14:00 +20°C° 0.5 mm 3 m/S 735 mmHg 60%
    15:00 +20°C° 0.5 mm 3 m/S 735 mmHg 63%
    16:00 +20°C° 0.5 mm 2 m/S 735 mmHg 66%
    17:00 +18°C° 0.4 mm 2 m/S 734 mmHg 72%
    18:00 +17°C° 0.4 mm 2 m/S 734 mmHg 77%
    19:00 +15°C° 0.4 mm 2 m/S 734 mmHg 83%
    20:00 +15°C° 0 mm 2 m/S 735 mmHg 83%
    21:00 +14°C° 0 mm 2 m/S 735 mmHg 84%
    22:00 +13°C° 0 mm 2 m/S 735 mmHg 84%
    23:00 +13°C° 0 mm 2 m/S 735 mmHg 84%

    2 Juni, Dienstag

    Zeit Temperatur Niederschläge Wind Luftdruck Luftfeuchtigkeit
    00:00 +12°C° 0 mm 2 m/S 735 mmHg 83%
    01:00 +12°C° 0 mm 2 m/S 734 mmHg 82%
    02:00 +12°C° 0 mm 2 m/S 734 mmHg 82%
    03:00 +10°C° 0 mm 2 m/S 734 mmHg 82%
    04:00 +10°C° 0 mm 3 m/S 734 mmHg 82%
    05:00 +12°C° 0 mm 3 m/S 734 mmHg 76%
    06:00 +14°C° 0 mm 3 m/S 734 mmHg 70%
    07:00 +17°C° 0 mm 3 m/S 734 mmHg 64%
    08:00 +18°C° 0 mm 3 m/S 734 mmHg 57%
    09:00 +19°C° 0 mm 3 m/S 734 mmHg 51%
    10:00 +20°C° 0 mm 4 m/S 734 mmHg 45%
    11:00 +21°C° 0 mm 4 m/S 734 mmHg 45%
    12:00 +21°C° 0 mm 4 m/S 734 mmHg 45%
    13:00 +22°C° 0 mm 4 m/S 734 mmHg 45%
    14:00 +21°C° 0 mm 4 m/S 733 mmHg 47%
    15:00 +21°C° 0 mm 4 m/S 733 mmHg 50%
    16:00 +20°C° 0 mm 4 m/S 733 mmHg 52%
    17:00 +19°C° 0 mm 4 m/S 733 mmHg 58%
    18:00 +17°C° 0 mm 4 m/S 733 mmHg 63%
    19:00 +16°C° 0 mm 3 m/S 733 mmHg 69%
    20:00 +14°C° 0 mm 3 m/S 733 mmHg 69%
    21:00 +12°C° 0 mm 3 m/S 734 mmHg 69%
    22:00 +11°C° 0 mm 3 m/S 734 mmHg 70%
    23:00 +11°C° 0 mm 3 m/S 734 mmHg 70%

    3 Juni, Mittwoch

    Zeit Temperatur Niederschläge Wind Luftdruck Luftfeuchtigkeit
    00:00 +10°C° 0 mm 3 m/S 733 mmHg 71%
    01:00 +10°C° 0 mm 3 m/S 733 mmHg 71%
    02:00 +10°C° 0 mm 3 m/S 733 mmHg 71%
    03:00 +9°C° 0 mm 3 m/S 733 mmHg 70%
    04:00 +9°C° 0 mm 2 m/S 733 mmHg 70%
    05:00 +12°C° 0 mm 2 m/S 733 mmHg 65%
    06:00 +14°C° 0 mm 2 m/S 733 mmHg 61%
    07:00 +16°C° 0 mm 2 m/S 733 mmHg 56%
    08:00 +19°C° 0 mm 1 m/S 733 mmHg 51%
    09:00 +20°C° 0 mm 1 m/S 733 mmHg 46%
    10:00 +22°C° 0 mm 1 m/S 733 mmHg 42%
    11:00 +21°C° 0 mm 2 m/S 733 mmHg 42%
    12:00 +21°C° 0 mm 3 m/S 733 mmHg 42%
    13:00 +22°C° 0 mm 3 m/S 733 mmHg 42%
    14:00 +21°C° 0 mm 3 m/S 733 mmHg 45%
    15:00 +21°C° 0 mm 3 m/S 732 mmHg 48%
    16:00 +20°C° 0 mm 2 m/S 732 mmHg 52%
    17:00 +18°C° 0 mm 2 m/S 732 mmHg 59%
    18:00 +18°C° 0 mm 1 m/S 733 mmHg 66%
    19:00 +14°C° 0 mm 0 m/S 733 mmHg 74%
    20:00 +14°C° 0 mm 1 m/S 733 mmHg 74%
    21:00 +14°C° 0 mm 1 m/S 733 mmHg 74%
    22:00 +13°C° 0 mm 2 m/S 734 mmHg 74%
    23:00 +13°C° 0 mm 1 m/S 734 mmHg 73%
    Mehr zeigen